Hebron, KY

12:34 AM EDT on August 31, 2016 (GMT -0400)
Cincinnati-Northern KY International

Weather History for KCVG - June, 2012

Change the Weather History Date:

Wednesday, June 6, 2012

  Actual Average Record
Temperature  
Mean Temperature 65 °F 70 °F  
Max Temperature 76 °F 80 °F 94 °F (1925)
Min Temperature 53 °F 60 °F 41 °F (1998)
Degree Days  
Heating Degree Days 0 1  
Month to date heating degree days 12 7  
Since 1 June heating degree days 12 7  
Since 1 July heating degree days 4015 4967  
Cooling Degree Days 0 6  
Month to date cooling degree days 6 31  
Year to date cooling degree days 209 125  
Since 1 June cooling degree days 6 31  
Growing Degree Days 14 (Base 50)    
Moisture  
Dew Point 48 °F    
Average Humidity 59    
Maximum Humidity 83    
Minimum Humidity 35    
Precipitation  
Precipitation 0.00 in 0.16 in 1.38 in (1996)
Month to date precipitation 0.85 0.92  
Year to date precipitation 17.74 19.51  
Snow  
Snow 0.00 in 0.00 in 0.00 in ()
Month to date snowfall 0.0 0.0  
Since 1 June snowfall 0.0 0.0  
Since 1 July snowfall 5.6 22.1  
Snow Depth 0.00 in    
Sea Level Pressure  
Sea Level Pressure 29.98 in    
Wind  
Wind Speed 7 mph (NNE)    
Max Wind Speed 17 mph    
Max Gust Speed 28 mph    
Visibility 10 miles    
Events      
T = Trace of Precipitation, MM = Missing Value Source: NWS Daily Summary

Daily Weather History Graph

Daily Weather History Graph

Search for Another Location

Airport or City:

Trip Planner

Search our weather history database for the weather conditions in past years. The results will help you decide how hot, cold, wet, or windy it might be!

Date:

Astronomy

Jun. 06, 2012 Rise Set
Actual Time 6:13 AM EDT 9:02 PM EDT
Civil Twilight 5:41 AM EDT 9:33 PM EDT
Nautical Twilight 5:01 AM EDT 10:14 PM EDT
Astronomical Twilight 4:15 AM EDT 10:59 PM EDT
Moon 11:13 PM EDT (6/6) 8:32 AM EDT (6/6)
Length of Visible Light 15h 52m
Length of Day
14h 49m
Waning Gibbous, 93% of the Moon is Illuminated
Jun 6
Waning Gibbous
Jun 11
Last Quarter
Jun 19
New
Jun 26
First Quarter
Jul 3
Full

Hourly Weather History & Observations

Time (EDT) Temp. Dew Point Humidity Pressure Visibility Wind Dir Wind Speed Gust Speed Precip Events Conditions
12:52 AM 57.0 °F 51.1 °F 81% 29.94 in 10.0 mi North 5.8 mph - N/A   Partly Cloudy
1:52 AM 55.0 °F 50.0 °F 83% 29.94 in 10.0 mi NNE 5.8 mph - N/A   Partly Cloudy
2:52 AM 57.0 °F 48.0 °F 72% 29.95 in 10.0 mi NNE 5.8 mph - N/A   Mostly Cloudy
3:52 AM 55.9 °F 48.0 °F 75% 29.94 in 10.0 mi NNE 5.8 mph - N/A   Scattered Clouds
4:52 AM 54.0 °F 48.0 °F 80% 29.95 in 10.0 mi North 5.8 mph - N/A   Mostly Cloudy
5:52 AM 53.6 °F 48.2 °F 82% 29.96 in 10.0 mi NNE 9.2 mph - N/A   Scattered Clouds
6:52 AM 54.0 °F 48.9 °F 83% 29.97 in 10.0 mi NNW 6.9 mph - N/A   Clear
7:52 AM 57.0 °F 48.9 °F 74% 29.99 in 10.0 mi NNE 5.8 mph - N/A   Clear
8:52 AM 60.1 °F 50.0 °F 69% 30.00 in 10.0 mi NE 8.1 mph - N/A   Clear
9:52 AM 64.9 °F 51.1 °F 61% 30.00 in 10.0 mi NE 10.4 mph - N/A   Partly Cloudy
10:52 AM 66.0 °F 50.0 °F 56% 30.01 in 10.0 mi NE 12.7 mph - N/A   Partly Cloudy
11:52 AM 68.0 °F 48.0 °F 49% 30.01 in 10.0 mi NE 15.0 mph 21.9 mph N/A   Mostly Cloudy
12:52 PM 70.0 °F 48.0 °F 46% 30.01 in 10.0 mi ENE 13.8 mph 20.7 mph N/A   Mostly Cloudy
1:52 PM 72.0 °F 50.0 °F 46% 30.00 in 10.0 mi East 10.4 mph 17.3 mph N/A   Mostly Cloudy
2:52 PM 73.0 °F 48.0 °F 41% 29.98 in 10.0 mi ENE 9.2 mph - N/A   Scattered Clouds
3:52 PM 73.9 °F 45.0 °F 35% 29.98 in 10.0 mi NE 9.2 mph - N/A   Scattered Clouds
4:52 PM 73.4 °F 44.6 °F 36% 29.99 in 10.0 mi NNE 12.7 mph - N/A   Scattered Clouds
5:52 PM 73.9 °F 46.0 °F 37% 29.97 in 10.0 mi North 8.1 mph - N/A   Scattered Clouds
6:52 PM 73.9 °F 45.0 °F 35% 29.97 in 10.0 mi North 8.1 mph - N/A   Scattered Clouds
7:52 PM 73.0 °F 44.1 °F 35% 29.99 in 10.0 mi NNE 8.1 mph - N/A   Scattered Clouds
8:52 PM 69.1 °F 46.0 °F 44% 29.99 in 10.0 mi North 6.9 mph - N/A   Partly Cloudy
9:52 PM 64.0 °F 46.9 °F 54% 30.00 in 10.0 mi Calm Calm - N/A   Clear
10:52 PM 63.0 °F 48.0 °F 58% 30.01 in 10.0 mi Calm Calm - N/A   Clear
11:52 PM 60.1 °F 48.0 °F 64% 30.02 in 10.0 mi Calm Calm - N/A   Clear